Change the Weather History Date:

Tuesday, December 10, 2013

  Actual Average Record
Temperature  
Mean Temperature 58 °F -  
Max Temperature 66 °F 59 °F 68 °F (2007)
Min Temperature 51 °F 47 °F 42 °F (2014)
Degree Days  
Heating Degree Days 6    
Growing Degree Days 8 (Base 50)    
Moisture  
Dew Point 44 °F    
Average Humidity 56    
Maximum Humidity 71    
Minimum Humidity 33    
Precipitation  
Precipitation 0.00 in 0.03 in - ()
Sea Level Pressure  
Sea Level Pressure 30.43 in    
Wind  
Wind Speed 12 mph ()    
Max Wind Speed 20 mph    
Max Gust Speed 30 mph    
Visibility 6.2 miles    
Events      
Averages and records for this station are not official NWS values.
T = Trace of Precipitation, MM = Missing Value Source: Averaged Metar Reports

Daily Weather History Graph

Daily Weather History Graph

Search for Another Location

Airport or City:

Trip Planner

Search our weather history database for the weather conditions in past years. The results will help you decide how hot, cold, wet, or windy it might be!

Date:

Astronomy

Dec. 10, 2013 Rise Set
Actual Time 8:11 AM CET 5:53 PM CET
Civil Twilight 7:42 AM CET 6:22 PM CET
Nautical Twilight 7:10 AM CET 6:54 PM CET
Astronomical Twilight 6:38 AM CET 7:25 PM CET
Moon 1:38 PM CET (12/10) 1:23 AM CET (12/10)
Length of Visible Light 10h 39m
Length of Day
9h 41m
First Quarter, 59% of the Moon is Illuminated
Dec 10
First Quarter
Dec 17
Full
Dec 25
Last Quarter
Jan 1
New
Jan 8
First Quarter

Hourly Weather History & Observations

Time (CET) Temp. Dew Point Humidity Pressure Visibility Wind Dir Wind Speed Gust Speed Precip Events Conditions
12:00 AM 54 °F 46 °F 66% 30.43 in - NNW 10.4 mph - -  
1:00 AM 53 °F 45 °F 67% 30.43 in - NNW 12.7 mph - -  
2:00 AM 53 °F 45 °F 65% 30.42 in - NNW 12.7 mph - -  
3:00 AM 53 °F 43 °F 61% 30.41 in - NNW 11.5 mph - -  
5:00 AM 53 °F 43 °F 59% 30.39 in - NNW 10.4 mph - -  
5:00 AM 51.8 °F 42.8 °F 71% 30.39 in - NNW 10.4 mph - N/A   Clear
5:30 AM 51.8 °F 42.8 °F 71% 30.39 in - NNW 10.4 mph - N/A   Clear
6:00 AM 53 °F 43 °F 58% 30.40 in - NNW 9.2 mph - -  
6:00 AM 51.8 °F 42.8 °F 71% 30.39 in - NNW 9.2 mph - N/A   Clear
6:30 AM 51.8 °F 42.8 °F 71% 30.39 in - NNW 6.9 mph - N/A   Clear
7:00 AM 53 °F 42 °F 58% 30.42 in 31 mi NNW 10.4 mph - -   Clear
7:00 AM 53.6 °F 42.8 °F 67% 30.39 in - NNW 10.4 mph - N/A   Clear
7:30 AM 51.8 °F 41.0 °F 67% 30.42 in - NNW 10.4 mph - N/A   Clear
8:00 AM 51 °F 42 °F 61% 30.44 in - NNW 10.4 mph - -  
8:00 AM 51.8 °F 41.0 °F 67% 30.42 in 6.2 mi NNW 10.4 mph - N/A   Partly Cloudy
8:30 AM 51.8 °F 41.0 °F 67% 30.42 in 6.2 mi NNW 9.2 mph - N/A   Partly Cloudy
9:00 AM 53 °F 42 °F 55% 30.46 in - NNW 10.4 mph - -  
9:00 AM 51.8 °F 41.0 °F 67% 30.45 in 6.2 mi NNW 10.4 mph - N/A   Partly Cloudy
9:30 AM 55.4 °F 41.0 °F 58% 30.45 in 6.2 mi NNW 10.4 mph - N/A   Partly Cloudy
10:00 AM 57.2 °F 42.8 °F 59% 30.45 in 6.2 mi NNW 9.2 mph - N/A   Partly Cloudy
10:30 AM 60.8 °F 42.8 °F 52% 30.48 in 6.2 mi NNE 12.7 mph - N/A   Partly Cloudy
11:00 AM 62 °F 43 °F 39% 30.48 in - NE 18.4 mph - -  
11:00 AM 62.6 °F 42.8 °F 48% 30.48 in 6.2 mi NE 17.3 mph - N/A   Partly Cloudy
11:30 AM 62.6 °F 42.8 °F 48% 30.48 in 6.2 mi NE 16.1 mph 29.9 mph N/A   Partly Cloudy
12:00 PM 63 °F 43 °F 36% 30.46 in - NE 17.3 mph - -  
12:00 PM 62.6 °F 42.8 °F 48% 30.45 in 6.2 mi NE 16.1 mph - N/A   Partly Cloudy
12:30 PM 62.6 °F 42.8 °F 48% 30.45 in 6.2 mi NE 19.6 mph - N/A   Partly Cloudy
1:00 PM 64 °F 43 °F 35% 30.43 in 31 mi NE 18.4 mph - -   Scattered Clouds
1:00 PM 64.4 °F 42.8 °F 45% 30.42 in 6.2 mi NE 18.4 mph - N/A   Partly Cloudy
1:30 PM 64.4 °F 42.8 °F 45% 30.42 in 6.2 mi NE 17.3 mph - N/A   Partly Cloudy
2:00 PM 65 °F 43 °F 34% 30.42 in - NE 19.6 mph - -  
2:00 PM 64.4 °F 42.8 °F 45% 30.42 in 6.2 mi NE 19.6 mph - N/A   Partly Cloudy
2:30 PM 64.4 °F 42.8 °F 45% 30.39 in 6.2 mi NE 16.1 mph - N/A   Partly Cloudy
3:00 PM 66 °F 44 °F 33% 30.40 in - ENE 17.3 mph - -  
3:00 PM 64.4 °F 42.8 °F 45% 30.39 in 6.2 mi NE 16.1 mph - N/A   Partly Cloudy
3:30 PM 64.4 °F 44.6 °F 49% 30.39 in 6.2 mi ENE 13.8 mph - N/A   Partly Cloudy
4:00 PM 64.4 °F 44.6 °F 49% 30.39 in 6.2 mi ENE 17.3 mph - N/A   Partly Cloudy
4:30 PM 62.6 °F 44.6 °F 52% 30.39 in 6.2 mi NE 17.3 mph - N/A   Partly Cloudy
5:00 PM 63 °F 46 °F 43% 30.40 in - ENE 19.6 mph - -  
5:00 PM 62.6 °F 44.6 °F 52% 30.39 in 6.2 mi ENE 18.4 mph - N/A   Partly Cloudy
5:30 PM 60.8 °F 44.6 °F 55% 30.39 in 6.2 mi ENE 17.3 mph - N/A   Partly Cloudy
6:00 PM 60 °F 45 °F 47% 30.41 in - NE 16.1 mph - -  
6:00 PM 59.0 °F 44.6 °F 59% 30.39 in 6.2 mi NE 15.0 mph - N/A   Partly Cloudy
6:30 PM 59.0 °F 44.6 °F 59% 30.42 in 6.2 mi NE 12.7 mph - N/A   Partly Cloudy
7:00 PM 58 °F 45 °F 52% 30.43 in 31 mi NE 10.4 mph - -   Scattered Clouds
7:00 PM 57.2 °F 44.6 °F 63% 30.42 in 6.2 mi NE 9.2 mph - N/A   Partly Cloudy
7:30 PM 57.2 °F 46.4 °F 67% 30.42 in 6.2 mi NE 10.4 mph - N/A   Partly Cloudy
8:00 PM 58 °F 47 °F 57% 30.45 in - NE 12.7 mph - -  
8:00 PM 57.2 °F 46.4 °F 67% 30.45 in 6.2 mi NE 12.7 mph - N/A   Partly Cloudy
8:30 PM 57.2 °F 46.4 °F 67% 30.45 in 6.2 mi NNE 11.5 mph - N/A   Partly Cloudy
9:00 PM 58 °F 46 °F 55% 30.46 in - NNE 11.5 mph - -  
9:00 PM 57.2 °F 46.4 °F 67% 30.45 in 6.2 mi NNE 11.5 mph - N/A   Partly Cloudy
9:30 PM 57.2 °F 46.4 °F 67% 30.45 in 6.2 mi NNE 13.8 mph - N/A   Partly Cloudy
10:00 PM 57.2 °F 44.6 °F 63% 30.45 in 6.2 mi NNE 9.2 mph - N/A   Partly Cloudy
10:30 PM 57.2 °F 44.6 °F 63% 30.45 in 6.2 mi NNE 9.2 mph - N/A   Partly Cloudy
11:00 PM 57 °F 46 °F 57% 30.47 in - NE 12.7 mph - -